Williams Lake Airport
CYWL : now visible

Airfield :











YOU CAN JOIN US ON...

 
LOGIN :

Register | Disclaimer

   EN    FR    IT 

 









Legend :    VFR   Marginal VFR   IFR   Intensive IFR   Very Intensive IFR
Visi :
Ceiling :
>= 8 km
>= 3000ft
5 to 8 km
1000 to 3000 ft
1500m to 5 km
500 to 1000 ft
800 to 1500m
200 to 500 ft
< 800m
< 200 ft
Symbols :   Thunderstorms  Fog  Heavy snow  Heavy precipitations  Wind > 20 kt







- Airport Elevation : 3085 ft
- IATA code : YWL


CYWL - Williams Lake

CURRENT METAR :
  • 160900Z 13002KT 15SM BKN110 15/03 A2996 RMK AC6 SLP141 DENSITY ALT 3800FT

EXPIRED METARs :
  • 160800Z 12004KT 15SM BKN110 16/03 A2996 RMK AC6 SLP138 DENSITY ALT 3900FT
  • 160700Z VRB02KT 15SM FEW100 15/04 A2996 RMK AC2 SLP140 DENSITY ALT 3900FT

TAF TAF CYWL
Valid from the 16 at 07:00 until the 16 at 19:00 UTC


160638Z 1607/1619 VRB03KT P6SM SCT080 SCT200
TEMPO 1607/1611 BKN090
FM161100 VRB03KT P6SM SCT080 BKN100 RMK NXT FCST BY 161300Z
CZVR FIR / North America



MET'MAP, your aeronautical weather chart ! - Copyright ORBIFLY December 2007 - Disclaimer

ORBIFLY MET'MAP TEAM :

Programming & Development : Alexandra Zaïnal
Concept & Development : Baudouin d'Aumeries
Co-Development & Prog : Marc-Olivier Méhu
Technical & hardware support : Manuel Goepfert

Contact : metmap@orbifly.com




SOURCES & CREDITS :

   NOAA       Earth
Advisory